TimeEDT,TemperatureF,Dew PointF,Humidity,Sea Level PressureIn,VisibilityMPH,Wind Direction,Wind SpeedMPH,Gust SpeedMPH,PrecipitationIn,Events,Conditions,WindDirDegrees,DateUTC
12:57 AM,77.0,71.1,82,29.90,10.0,West,10.4,19.6,0.00,Rain-Thunderstorm,Light Thunderstorms and Rain,270,2013-06-19 04:57:00
1:03 AM,75.2,71.6,89,29.89,1.5,WNW,12.7,20.7,0.01,Rain-Thunderstorm,Heavy Thunderstorms and Rain,290,2013-06-19 05:03:00
1:14 AM,75.2,69.8,83,29.87,1.2,WSW,11.5,19.6,0.04,Rain-Thunderstorm,Heavy Thunderstorms and Rain,250,2013-06-19 05:14:00
1:24 AM,73.4,69.8,88,29.87,4.0,West,5.8,18.4,0.07,Rain-Thunderstorm,Light Thunderstorms and Rain,270,2013-06-19 05:24:00
1:33 AM,75.2,71.6,89,29.88,10.0,NW,11.5,16.1,0.10,,Overcast,310,2013-06-19 05:33:00
1:57 AM,73.9,70.0,87,29.88,10.0,NW,9.2,-,0.17,,Overcast,320,2013-06-19 05:57:00
2:11 AM,73.4,69.8,88,29.86,2.5,NW,12.7,19.6,0.04,Rain,Heavy Rain,310,2013-06-19 06:11:00
2:15 AM,73.4,69.8,88,29.86,3.0,WNW,11.5,19.6,0.05,Rain,Rain,300,2013-06-19 06:15:00
2:27 AM,73.4,69.8,88,29.86,4.0,WNW,8.1,17.3,0.08,Rain,Heavy Rain,290,2013-06-19 06:27:00
2:32 AM,73.4,69.8,88,29.87,3.0,WNW,8.1,17.3,0.09,Rain-Thunderstorm,Thunderstorms and Rain,290,2013-06-19 06:32:00
2:57 AM,73.0,70.0,90,29.88,10.0,NW,9.2,-,0.15,Thunderstorm,Thunderstorm,310,2013-06-19 06:57:00
3:10 AM,73.4,69.8,88,29.86,10.0,WNW,6.9,-,0.03,,Partly Cloudy,290,2013-06-19 07:10:00
3:46 AM,73.4,69.8,88,29.85,8.0,WSW,3.5,-,0.09,Rain-Thunderstorm,Light Thunderstorms and Rain,240,2013-06-19 07:46:00
3:57 AM,73.0,70.0,90,29.88,10.0,WSW,3.5,-,0.09,Thunderstorm,Thunderstorm,250,2013-06-19 07:57:00
4:25 AM,73.4,69.8,88,29.87,10.0,Variable,5.8,-,N/A,Thunderstorm,Mostly Cloudy,0,2013-06-19 08:25:00
4:29 AM,73.4,69.8,88,29.87,10.0,West,5.8,-,N/A,,Mostly Cloudy,280,2013-06-19 08:29:00
4:57 AM,73.0,70.0,90,29.88,9.0,West,4.6,-,0.00,Rain,Light Rain,270,2013-06-19 08:57:00
5:57 AM,73.0,70.0,90,29.89,10.0,West,6.9,-,0.00,,Partly Cloudy,270,2013-06-19 09:57:00
6:12 AM,73.4,69.8,88,29.90,9.0,West,6.9,-,N/A,,Mostly Cloudy,270,2013-06-19 10:12:00
6:57 AM,73.0,70.0,90,29.92,10.0,WNW,4.6,-,0.00,Rain,Light Rain,300,2013-06-19 10:57:00
7:08 AM,73.4,69.8,88,29.92,9.0,NW,8.1,-,N/A,,Overcast,310,2013-06-19 11:08:00
7:57 AM,72.0,69.1,91,29.95,10.0,Variable,6.9,-,0.00,Rain,Light Rain,0,2013-06-19 11:57:00
8:18 AM,71.6,69.8,94,29.95,10.0,North,6.9,-,0.00,,Overcast,350,2013-06-19 12:18:00
8:40 AM,73.4,69.8,88,29.95,10.0,North,8.1,-,0.00,,Overcast,10,2013-06-19 12:40:00
8:57 AM,73.0,70.0,90,29.97,10.0,North,6.9,-,0.00,,Overcast,10,2013-06-19 12:57:00
9:28 AM,73.4,68.0,83,29.96,10.0,North,4.6,-,N/A,,Mostly Cloudy,10,2013-06-19 13:28:00
9:57 AM,73.0,68.0,84,29.99,10.0,North,5.8,-,0.00,Rain,Light Rain,360,2013-06-19 13:57:00
10:49 AM,73.4,66.2,78,30.00,9.0,NE,8.1,-,0.00,,Overcast,40,2013-06-19 14:49:00
10:57 AM,73.0,66.9,81,30.01,9.0,NE,8.1,-,0.00,,Overcast,40,2013-06-19 14:57:00
11:57 AM,73.9,66.9,79,30.02,10.0,NE,4.6,-,N/A,,Overcast,40,2013-06-19 15:57:00
12:06 PM,73.4,68.0,83,30.01,10.0,NE,6.9,-,N/A,,Overcast,50,2013-06-19 16:06:00
12:28 PM,73.4,66.2,78,30.03,10.0,NE,9.2,16.1,N/A,,Overcast,50,2013-06-19 16:28:00
12:37 PM,73.4,66.2,78,30.03,10.0,NE,8.1,-,N/A,,Overcast,50,2013-06-19 16:37:00
12:57 PM,73.9,66.9,79,30.04,10.0,NE,8.1,-,N/A,,Overcast,40,2013-06-19 16:57:00
1:06 PM,73.4,66.2,78,30.03,10.0,NE,9.2,-,N/A,,Overcast,40,2013-06-19 17:06:00
1:57 PM,73.0,66.9,81,30.05,10.0,NE,4.6,-,0.00,Rain,Light Rain,40,2013-06-19 17:57:00
2:40 PM,75.2,66.2,73,30.02,10.0,NE,6.9,-,0.00,,Overcast,40,2013-06-19 18:40:00
2:57 PM,75.0,66.0,73,30.03,10.0,NE,10.4,-,0.00,,Overcast,50,2013-06-19 18:57:00
3:57 PM,75.9,64.9,69,30.02,10.0,NE,8.1,-,N/A,,Mostly Cloudy,40,2013-06-19 19:57:00
4:57 PM,77.0,66.0,69,30.03,10.0,NNE,11.5,-,N/A,,Scattered Clouds,30,2013-06-19 20:57:00
5:57 PM,77.0,64.9,66,30.03,10.0,ENE,8.1,-,N/A,,Mostly Cloudy,60,2013-06-19 21:57:00
6:11 PM,77.0,64.4,65,30.03,10.0,ENE,11.5,-,N/A,,Mostly Cloudy,70,2013-06-19 22:11:00
6:57 PM,75.0,64.9,71,30.06,10.0,East,9.2,-,N/A,,Overcast,80,2013-06-19 22:57:00
7:57 PM,73.0,66.0,79,30.07,10.0,ENE,10.4,-,N/A,,Overcast,70,2013-06-19 23:57:00
8:57 PM,72.0,64.0,76,30.08,10.0,NE,5.8,-,N/A,,Mostly Cloudy,50,2013-06-20 00:57:00
9:57 PM,71.1,63.0,75,30.11,10.0,NE,4.6,-,N/A,,Mostly Cloudy,50,2013-06-20 01:57:00
10:57 PM,70.0,63.0,78,30.12,10.0,NE,5.8,-,N/A,,Clear,40,2013-06-20 02:57:00
11:57 PM,69.1,63.0,81,30.13,10.0,NNE,4.6,-,N/A,,Clear,30,2013-06-20 03:57:00